Location: Caltech
(34.1382°N, 118.1253°W)
Time: 02:32:57
(UTC-08:00)

OPAL - Visible Passes

Search period start: 23 January 2017 00:00
Search period end: 02 February 2017 00:00
Orbit: 743 x 796 km, 100.2° (Epoch: 22 January)

Date Brightness Start Highest point End Pass type
(mag) Time Alt. Az. Time Alt. Az. Time Alt. Az.
29 Jan 10.0 04:19:02 10° N 04:19:10 11° N 04:19:10 11° N visible
31 Jan 9.7 04:47:16 10° N 04:48:00 14° N 04:48:00 14° N visible
01 Feb 9.8 04:11:32 10° NNE 04:12:17 14° NNE 04:12:17 14° NNE visible
